YAOGAN-28

Last updated on Fri Oct 04 2024 00:02:25 GMT+0000 (Coordinated Universal Time)

1 41026U 15064A 24277.55063909 .00027090 00000+0 11355-2 0 9992 2 41026 97.2257 63.7738 0009402 188.6460 171.4617 15.23442958495984
UTC large
Height (km)
Speed (km/s)
/
Latitude / Longitude
Inclination (degrees)
Orbital Period (minutes)
Azimuth
Elevation
Range (km)
Doppler Factor

Next 0 passes for location: London (51.5072 / 0.1276)

Sorry there are no passes over London.